Time,TemperatureF,DewpointF,PressureIn,WindDirection,WindDirectionDegrees,WindSpeedMPH,WindSpeedGustMPH,Humidity,HourlyPrecipIn,Conditions,Clouds,dailyrainin,SoftwareType,DateUTC
2013-06-09 00:01:00,54.9,50.2,30.10,SSW,195,1.0,2.0,84,0.00,,,0.00,WeatherCatV1.10B1784,2013-06-09 07:01:00,
2013-06-09 00:06:00,54.9,50.2,30.10,SSW,210,0.0,0.0,84,0.00,,,0.00,WeatherCatV1.10B1784,2013-06-09 07:06:00,
2013-06-09 00:11:00,54.7,50.0,30.10,South,170,1.0,2.0,84,0.00,,,0.00,WeatherCatV1.10B1784,2013-06-09 07:11:00,
2013-06-09 00:16:00,54.7,50.0,30.10,SSE,163,1.0,1.0,84,0.00,,,0.00,WeatherCatV1.10B1784,2013-06-09 07:16:00,
2013-06-09 00:21:00,54.6,49.9,30.10,SSE,160,2.0,2.0,84,0.00,,,0.00,WeatherCatV1.10B1784,2013-06-09 07:21:00,
2013-06-09 00:26:00,54.6,49.9,30.10,SSE,158,1.0,1.0,84,0.00,,,0.00,WeatherCatV1.10B1784,2013-06-09 07:26:00,
2013-06-09 00:31:00,54.5,49.8,30.10,SSE,155,1.0,1.0,84,0.00,,,0.00,WeatherCatV1.10B1784,2013-06-09 07:31:00,
2013-06-09 00:36:00,54.2,49.5,30.09,South,170,1.0,2.0,84,0.00,,,0.00,WeatherCatV1.10B1784,2013-06-09 07:36:00,
2013-06-09 00:41:00,54.1,49.7,30.09,SSE,158,0.0,2.0,85,0.00,,,0.00,WeatherCatV1.10B1784,2013-06-09 07:41:00,
2013-06-09 00:46:00,53.7,49.3,30.09,SSE,158,1.0,1.0,85,0.00,,,0.00,WeatherCatV1.10B1784,2013-06-09 07:46:00,
2013-06-09 00:51:00,53.6,49.5,30.09,South,187,2.0,2.0,86,0.00,,,0.00,WeatherCatV1.10B1784,2013-06-09 07:51:00,
2013-06-09 00:56:00,53.4,49.3,30.09,SSW,207,2.0,2.0,86,0.00,,,0.00,WeatherCatV1.10B1784,2013-06-09 07:56:00,
2013-06-09 01:01:00,53.2,49.4,30.09,South,179,2.0,3.0,87,0.00,,,0.00,WeatherCatV1.10B1784,2013-06-09 08:01:00,
2013-06-09 01:06:00,53.3,49.5,30.09,South,179,2.0,3.0,87,0.00,,,0.00,WeatherCatV1.10B1784,2013-06-09 08:06:00,
2013-06-09 01:11:00,53.4,49.6,30.09,SSW,200,2.0,2.0,87,0.00,,,0.00,WeatherCatV1.10B1784,2013-06-09 08:11:00,
2013-06-09 01:16:00,53.7,49.6,30.09,South,177,2.0,3.0,86,0.00,,,0.00,WeatherCatV1.10B1784,2013-06-09 08:16:00,
2013-06-09 01:21:00,53.9,49.5,30.09,South,181,2.0,2.0,85,0.00,,,0.00,WeatherCatV1.10B1784,2013-06-09 08:21:00,
2013-06-09 01:26:00,53.9,49.5,30.09,South,177,2.0,2.0,85,0.00,,,0.00,WeatherCatV1.10B1784,2013-06-09 08:26:00,
2013-06-09 01:31:00,53.8,49.4,30.09,SSE,160,2.0,2.0,85,0.00,,,0.00,WeatherCatV1.10B1784,2013-06-09 08:31:00,
2013-06-09 01:36:00,53.6,49.2,30.09,SSE,156,2.0,2.0,85,0.00,,,0.00,WeatherCatV1.10B1784,2013-06-09 08:36:00,
2013-06-09 01:41:00,53.4,49.0,30.09,South,170,2.0,3.0,85,0.00,,,0.00,WeatherCatV1.10B1784,2013-06-09 08:41:00,
2013-06-09 01:46:00,53.1,49.0,30.09,SSE,160,2.0,2.0,86,0.00,,,0.00,WeatherCatV1.10B1784,2013-06-09 08:46:00,
2013-06-09 01:51:00,53.0,48.9,30.09,SSE,163,2.0,2.0,86,0.00,,,0.00,WeatherCatV1.10B1784,2013-06-09 08:51:00,
2013-06-09 01:56:00,53.0,49.2,30.09,South,172,2.0,2.0,87,0.00,,,0.00,WeatherCatV1.10B1784,2013-06-09 08:56:00,
2013-06-09 02:01:00,52.9,49.1,30.09,SSW,211,2.0,2.0,87,0.00,,,0.00,WeatherCatV1.10B1784,2013-06-09 09:01:00,
2013-06-09 02:06:00,53.1,49.3,30.09,SSW,207,3.0,3.0,87,0.00,,,0.00,WeatherCatV1.10B1784,2013-06-09 09:06:00,
2013-06-09 02:11:00,53.3,49.5,30.09,SSW,210,1.0,2.0,87,0.00,,,0.00,WeatherCatV1.10B1784,2013-06-09 09:11:00,
2013-06-09 02:16:00,53.4,49.3,30.09,SW,233,1.0,2.0,86,0.00,,,0.00,WeatherCatV1.10B1784,2013-06-09 09:16:00,
2013-06-09 02:21:00,53.6,49.5,30.09,SSW,198,2.0,3.0,86,0.00,,,0.00,WeatherCatV1.10B1784,2013-06-09 09:21:00,
2013-06-09 02:26:00,53.7,49.6,30.09,SSW,211,2.0,3.0,86,0.00,,,0.00,WeatherCatV1.10B1784,2013-06-09 09:26:00,
2013-06-09 02:31:00,54.0,49.9,30.09,SW,218,2.0,3.0,86,0.00,,,0.00,WeatherCatV1.10B1784,2013-06-09 09:31:00,
2013-06-09 02:36:00,54.2,50.1,30.09,SW,232,2.0,3.0,86,0.00,,,0.00,WeatherCatV1.10B1784,2013-06-09 09:36:00,
2013-06-09 02:41:00,54.5,50.4,30.09,South,186,1.0,3.0,86,0.00,,,0.00,WeatherCatV1.10B1784,2013-06-09 09:41:00,
2013-06-09 02:46:00,54.7,50.3,30.08,SW,217,1.0,2.0,85,0.00,,,0.00,WeatherCatV1.10B1784,2013-06-09 09:46:00,
2013-06-09 02:51:00,54.7,50.3,30.09,South,190,1.0,2.0,85,0.00,,,0.00,WeatherCatV1.10B1784,2013-06-09 09:51:00,
2013-06-09 02:56:00,54.7,50.3,30.09,SSW,210,1.0,2.0,85,0.00,,,0.00,WeatherCatV1.10B1784,2013-06-09 09:56:00,
2013-06-09 03:01:00,54.7,50.3,30.09,WSW,250,3.0,4.0,85,0.00,,,0.00,WeatherCatV1.10B1784,2013-06-09 10:01:00,
2013-06-09 03:06:00,54.7,50.0,30.08,SW,226,2.0,3.0,84,0.00,,,0.00,WeatherCatV1.10B1784,2013-06-09 10:06:00,
2013-06-09 03:11:00,54.6,49.9,30.08,SW,233,2.0,3.0,84,0.00,,,0.00,WeatherCatV1.10B1784,2013-06-09 10:11:00,
2013-06-09 03:16:00,54.6,49.5,30.08,SW,231,1.0,3.0,83,0.00,,,0.00,WeatherCatV1.10B1784,2013-06-09 10:16:00,
2013-06-09 03:21:00,54.6,49.2,30.08,WSW,239,1.0,2.0,82,0.00,,,0.00,WeatherCatV1.10B1784,2013-06-09 10:21:00,
2013-06-09 03:26:00,54.6,49.2,30.08,WSW,242,1.0,1.0,82,0.00,,,0.00,WeatherCatV1.10B1784,2013-06-09 10:26:00,
2013-06-09 03:31:00,54.5,49.4,30.08,West,277,0.0,1.0,83,0.00,,,0.00,WeatherCatV1.10B1784,2013-06-09 10:31:00,
2013-06-09 03:36:00,54.5,49.4,30.08,SW,223,0.0,2.0,83,0.00,,,0.00,WeatherCatV1.10B1784,2013-06-09 10:36:00,
2013-06-09 03:41:00,54.5,49.8,30.08,SW,217,2.0,2.0,84,0.00,,,0.00,WeatherCatV1.10B1784,2013-06-09 10:41:00,
2013-06-09 03:46:00,54.8,50.1,30.08,SW,224,3.0,4.0,84,0.00,,,0.00,WeatherCatV1.10B1784,2013-06-09 10:46:00,
2013-06-09 03:51:00,55.2,50.4,30.08,WSW,249,2.0,2.0,84,0.00,,,0.00,WeatherCatV1.10B1784,2013-06-09 10:51:00,
2013-06-09 03:56:00,55.5,50.7,30.08,WSW,253,0.0,3.0,84,0.00,,,0.00,WeatherCatV1.10B1784,2013-06-09 10:56:00,
2013-06-09 04:01:00,55.7,50.3,30.08,WNW,282,1.0,2.0,82,0.00,,,0.00,WeatherCatV1.10B1784,2013-06-09 11:01:00,
2013-06-09 04:06:00,55.7,50.0,30.08,WNW,293,1.0,1.0,81,0.00,,,0.00,WeatherCatV1.10B1784,2013-06-09 11:06:00,
2013-06-09 04:11:00,55.7,50.0,30.08,WNW,293,0.0,0.0,81,0.00,,,0.00,WeatherCatV1.10B1784,2013-06-09 11:11:00,
2013-06-09 04:16:00,55.7,50.0,30.08,NW,305,1.0,3.0,81,0.00,,,0.00,WeatherCatV1.10B1784,2013-06-09 11:16:00,
2013-06-09 04:21:00,55.8,49.4,30.08,WNW,289,1.0,4.0,79,0.00,,,0.00,WeatherCatV1.10B1784,2013-06-09 11:21:00,
2013-06-09 04:26:00,55.6,48.8,30.08,WNW,285,2.0,5.0,78,0.00,,,0.00,WeatherCatV1.10B1784,2013-06-09 11:26:00,
2013-06-09 04:31:00,55.5,48.8,30.08,WSW,253,4.0,6.0,78,0.00,,,0.00,WeatherCatV1.10B1784,2013-06-09 11:31:00,
2013-06-09 04:36:00,55.6,48.8,30.08,WNW,294,4.0,8.0,78,0.00,,,0.00,WeatherCatV1.10B1784,2013-06-09 11:36:00,
2013-06-09 04:41:00,55.5,48.8,30.08,WNW,288,4.0,11.0,78,0.00,,,0.00,WeatherCatV1.10B1784,2013-06-09 11:41:00,
2013-06-09 04:46:00,55.4,48.7,30.08,WNW,285,5.0,7.0,78,0.00,,,0.00,WeatherCatV1.10B1784,2013-06-09 11:46:00,
2013-06-09 04:51:00,55.3,48.9,30.08,WNW,284,2.0,6.0,79,0.00,,,0.00,WeatherCatV1.10B1784,2013-06-09 11:51:00,
2013-06-09 04:56:00,55.3,48.9,30.08,WNW,282,3.0,8.0,79,0.00,,,0.00,WeatherCatV1.10B1784,2013-06-09 11:56:00,
2013-06-09 05:01:00,55.2,49.1,30.08,West,260,4.0,7.0,80,0.00,,,0.00,WeatherCatV1.10B1784,2013-06-09 12:01:00,
2013-06-09 05:06:00,55.1,49.4,30.08,West,271,2.0,4.0,81,0.00,,,0.00,WeatherCatV1.10B1784,2013-06-09 12:06:00,
2013-06-09 05:11:00,55.1,50.0,30.08,West,278,7.0,8.0,83,0.00,,,0.00,WeatherCatV1.10B1784,2013-06-09 12:11:00,
2013-06-09 05:16:00,55.1,50.0,30.08,West,269,2.0,6.0,83,0.00,,,0.00,WeatherCatV1.10B1784,2013-06-09 12:16:00,
2013-06-09 05:21:00,55.1,50.0,30.08,WNW,287,3.0,7.0,83,0.00,,,0.00,WeatherCatV1.10B1784,2013-06-09 12:21:00,
2013-06-09 05:26:00,55.1,50.0,30.08,West,274,2.0,4.0,83,0.00,,,0.00,WeatherCatV1.10B1784,2013-06-09 12:26:00,
2013-06-09 05:31:00,55.1,50.4,30.08,West,262,2.0,7.0,84,0.00,,,0.00,WeatherCatV1.10B1784,2013-06-09 12:31:00,
2013-06-09 05:36:00,55.1,50.4,30.08,WNW,284,3.0,5.0,84,0.00,,,0.00,WeatherCatV1.10B1784,2013-06-09 12:36:00,
2013-06-09 05:41:00,55.0,50.3,30.08,West,259,2.0,5.0,84,0.00,,,0.00,WeatherCatV1.10B1784,2013-06-09 12:41:00,
2013-06-09 05:46:00,55.2,50.4,30.08,WNW,293,3.0,8.0,84,0.00,,,0.00,WeatherCatV1.10B1784,2013-06-09 12:46:00,
2013-06-09 05:51:00,55.3,50.5,30.08,NW,304,5.0,5.0,84,0.00,,,0.00,WeatherCatV1.10B1784,2013-06-09 12:51:00,
2013-06-09 05:56:00,55.3,50.5,30.08,WNW,298,5.0,6.0,84,0.00,,,0.00,WeatherCatV1.10B1784,2013-06-09 12:56:00,
2013-06-09 06:01:00,55.3,50.5,30.08,WNW,293,4.0,5.0,84,0.00,,,0.00,WeatherCatV1.10B1784,2013-06-09 13:01:00,
2013-06-09 06:06:00,55.3,50.5,30.08,West,280,3.0,6.0,84,0.00,,,0.00,WeatherCatV1.10B1784,2013-06-09 13:06:00,
2013-06-09 06:11:00,55.2,50.1,30.08,WNW,300,6.0,9.0,83,0.00,,,0.00,WeatherCatV1.10B1784,2013-06-09 13:11:00,
2013-06-09 06:16:00,55.0,49.9,30.08,NW,304,4.0,6.0,83,0.00,,,0.00,WeatherCatV1.10B1784,2013-06-09 13:16:00,
2013-06-09 06:22:00,55.0,50.3,30.08,WNW,300,6.0,8.0,84,0.00,,,0.00,WeatherCatV1.10B1784,2013-06-09 13:22:00,
2013-06-09 06:27:00,55.1,50.4,30.08,West,275,2.0,7.0,84,0.00,,,0.00,WeatherCatV1.10B1784,2013-06-09 13:27:00,
2013-06-09 06:32:00,55.1,50.0,30.08,WNW,286,5.0,6.0,83,0.00,,,0.00,WeatherCatV1.10B1784,2013-06-09 13:32:00,
2013-06-09 06:37:00,55.2,50.1,30.08,WSW,253,2.0,5.0,83,0.00,,,0.00,WeatherCatV1.10B1784,2013-06-09 13:37:00,
2013-06-09 06:42:00,55.1,50.0,30.08,WSW,250,4.0,8.0,83,0.00,,,0.00,WeatherCatV1.10B1784,2013-06-09 13:42:00,
2013-06-09 06:47:00,55.1,49.7,30.08,WNW,293,4.0,7.0,82,0.00,,,0.00,WeatherCatV1.10B1784,2013-06-09 13:47:00,
2013-06-09 06:52:00,55.1,49.7,30.08,West,259,7.0,9.0,82,0.00,,,0.00,WeatherCatV1.10B1784,2013-06-09 13:52:00,
2013-06-09 06:57:00,55.1,49.7,30.08,WNW,300,4.0,4.0,82,0.00,,,0.00,WeatherCatV1.10B1784,2013-06-09 13:57:00,
2013-06-09 07:02:00,55.5,50.4,30.08,West,281,8.0,10.0,83,0.00,,,0.00,WeatherCatV1.10B1784,2013-06-09 14:02:00,
2013-06-09 07:07:00,56.0,50.6,30.08,West,280,1.0,9.0,82,0.00,,,0.00,WeatherCatV1.10B1784,2013-06-09 14:07:00,
2013-06-09 07:12:00,56.3,50.2,30.08,NW,307,6.0,9.0,80,0.00,,,0.00,WeatherCatV1.10B1784,2013-06-09 14:12:00,
2013-06-09 07:17:00,56.3,50.5,30.08,West,274,5.0,8.0,81,0.00,,,0.00,WeatherCatV1.10B1784,2013-06-09 14:17:00,
2013-06-09 07:22:00,56.3,50.2,30.08,NW,314,7.0,8.0,80,0.00,,,0.00,WeatherCatV1.10B1784,2013-06-09 14:22:00,
2013-06-09 07:27:00,56.4,50.0,30.08,WNW,294,4.0,6.0,79,0.00,,,0.00,WeatherCatV1.10B1784,2013-06-09 14:27:00,
2013-06-09 07:32:00,56.6,49.8,30.08,WNW,291,7.0,7.0,78,0.00,,,0.00,WeatherCatV1.10B1784,2013-06-09 14:32:00,
2013-06-09 07:37:00,56.7,49.9,30.08,West,280,5.0,9.0,78,0.00,,,0.00,WeatherCatV1.10B1784,2013-06-09 14:37:00,
2013-06-09 07:42:00,56.5,49.7,30.08,WNW,290,3.0,10.0,78,0.00,,,0.00,WeatherCatV1.10B1784,2013-06-09 14:42:00,
2013-06-09 07:47:00,56.4,50.0,30.08,WNW,293,5.0,10.0,79,0.00,,,0.00,WeatherCatV1.10B1784,2013-06-09 14:47:00,
2013-06-09 07:52:00,56.4,50.0,30.08,NW,309,6.0,10.0,79,0.00,,,0.00,WeatherCatV1.10B1784,2013-06-09 14:52:00,
2013-06-09 07:57:00,56.8,50.0,30.08,WNW,293,4.0,9.0,78,0.00,,,0.00,WeatherCatV1.10B1784,2013-06-09 14:57:00,
2013-06-09 08:02:00,57.2,50.1,30.08,WNW,291,4.0,10.0,77,0.00,,,0.00,WeatherCatV1.10B1784,2013-06-09 15:02:00,
2013-06-09 08:07:00,57.3,50.2,30.08,WSW,253,8.0,8.0,77,0.00,,,0.00,WeatherCatV1.10B1784,2013-06-09 15:07:00,
2013-06-09 08:12:00,57.2,50.4,30.08,NNW,343,5.0,12.0,78,0.00,,,0.00,WeatherCatV1.10B1784,2013-06-09 15:12:00,
2013-06-09 08:17:00,57.3,50.5,30.08,West,277,7.0,11.0,78,0.00,,,0.00,WeatherCatV1.10B1784,2013-06-09 15:17:00,
2013-06-09 08:22:00,57.4,50.6,30.08,WNW,290,3.0,10.0,78,0.00,,,0.00,WeatherCatV1.10B1784,2013-06-09 15:22:00,
2013-06-09 08:27:00,57.4,50.6,30.08,NW,305,9.0,12.0,78,0.00,,,0.00,WeatherCatV1.10B1784,2013-06-09 15:27:00,
2013-06-09 08:32:00,57.3,50.8,30.08,NW,311,9.0,12.0,79,0.00,,,0.00,WeatherCatV1.10B1784,2013-06-09 15:32:00,
2013-06-09 08:37:00,57.2,50.4,30.08,West,280,9.0,13.0,78,0.00,,,0.00,WeatherCatV1.10B1784,2013-06-09 15:37:00,
2013-06-09 08:42:00,57.2,50.4,30.08,West,263,8.0,14.0,78,0.00,,,0.00,WeatherCatV1.10B1784,2013-06-09 15:42:00,
2013-06-09 08:47:00,57.1,50.3,30.08,NW,309,6.0,14.0,78,0.00,,,0.00,WeatherCatV1.10B1784,2013-06-09 15:47:00,
2013-06-09 08:52:00,57.2,50.4,30.08,NNW,341,5.0,12.0,78,0.00,,,0.00,WeatherCatV1.10B1784,2013-06-09 15:52:00,
2013-06-09 08:57:00,57.5,50.7,30.08,NNW,347,12.0,14.0,78,0.00,,,0.00,WeatherCatV1.10B1784,2013-06-09 15:57:00,
2013-06-09 09:02:00,57.7,50.9,30.08,NW,304,13.0,13.0,78,0.00,,,0.00,WeatherCatV1.10B1784,2013-06-09 16:02:00,
2013-06-09 09:07:00,57.7,50.2,30.08,WNW,302,8.0,14.0,76,0.00,,,0.00,WeatherCatV1.10B1784,2013-06-09 16:07:00,
2013-06-09 09:12:00,57.8,50.3,30.08,NW,323,9.0,14.0,76,0.00,,,0.00,WeatherCatV1.10B1784,2013-06-09 16:12:00,
2013-06-09 09:17:00,58.0,50.5,30.08,NW,323,8.0,13.0,76,0.00,,,0.00,WeatherCatV1.10B1784,2013-06-09 16:17:00,
2013-06-09 09:22:00,57.9,50.0,30.08,NNE,20,8.0,15.0,75,0.00,,,0.00,WeatherCatV1.10B1784,2013-06-09 16:22:00,
2013-06-09 09:27:00,57.9,50.4,30.08,NNW,336,16.0,16.0,76,0.00,,,0.00,WeatherCatV1.10B1784,2013-06-09 16:27:00,
2013-06-09 09:32:00,57.7,50.2,30.08,NNW,341,8.0,16.0,76,0.00,,,0.00,WeatherCatV1.10B1784,2013-06-09 16:32:00,
2013-06-09 09:37:00,57.7,49.8,30.08,NNE,18,9.0,13.0,75,0.00,,,0.00,WeatherCatV1.10B1784,2013-06-09 16:37:00,
2013-06-09 09:42:00,57.9,50.7,30.08,NW,311,7.0,11.0,77,0.00,,,0.00,WeatherCatV1.10B1784,2013-06-09 16:42:00,
2013-06-09 09:47:00,58.0,50.8,30.08,WNW,295,8.0,12.0,77,0.00,,,0.00,WeatherCatV1.10B1784,2013-06-09 16:47:00,
2013-06-09 09:52:00,57.8,50.3,30.08,NNW,334,9.0,12.0,76,0.00,,,0.00,WeatherCatV1.10B1784,2013-06-09 16:52:00,
2013-06-09 09:57:00,57.9,50.4,30.08,NW,319,8.0,13.0,76,0.00,,,0.00,WeatherCatV1.10B1784,2013-06-09 16:57:00,
2013-06-09 10:02:00,57.8,50.6,30.08,NW,307,10.0,11.0,77,0.00,,,0.00,WeatherCatV1.10B1784,2013-06-09 17:02:00,
2013-06-09 10:07:00,57.8,50.3,30.08,NNW,348,6.0,13.0,76,0.00,,,0.00,WeatherCatV1.10B1784,2013-06-09 17:07:00,
2013-06-09 10:12:00,57.9,50.7,30.08,NNW,329,10.0,12.0,77,0.00,,,0.00,WeatherCatV1.10B1784,2013-06-09 17:12:00,
2013-06-09 10:17:00,57.9,50.4,30.08,North,1,4.0,10.0,76,0.00,,,0.00,WeatherCatV1.10B1784,2013-06-09 17:17:00,
2013-06-09 10:22:00,58.1,50.6,30.08,NW,312,5.0,12.0,76,0.00,,,0.00,WeatherCatV1.10B1784,2013-06-09 17:22:00,
2013-06-09 10:27:00,58.2,50.7,30.08,NW,326,6.0,12.0,76,0.00,,,0.00,WeatherCatV1.10B1784,2013-06-09 17:27:00,
2013-06-09 10:32:00,58.0,50.1,30.08,NW,304,11.0,12.0,75,0.00,,,0.00,WeatherCatV1.10B1784,2013-06-09 17:32:00,
2013-06-09 10:37:00,58.2,50.7,30.08,NNE,31,4.0,10.0,76,0.00,,,0.00,WeatherCatV1.10B1784,2013-06-09 17:37:00,
2013-06-09 10:42:00,58.2,50.7,30.08,NNW,329,8.0,11.0,76,0.00,,,0.00,WeatherCatV1.10B1784,2013-06-09 17:42:00,
2013-06-09 10:47:00,57.9,50.4,30.08,NW,325,6.0,12.0,76,0.00,,,0.00,WeatherCatV1.10B1784,2013-06-09 17:47:00,
2013-06-09 10:52:00,57.9,50.7,30.08,NE,36,7.0,10.0,77,0.00,,,0.00,WeatherCatV1.10B1784,2013-06-09 17:52:00,
2013-06-09 10:57:00,57.8,50.6,30.08,WNW,284,6.0,10.0,77,0.00,,,0.00,WeatherCatV1.10B1784,2013-06-09 17:57:00,
2013-06-09 11:02:00,57.9,51.1,30.08,North,357,11.0,11.0,78,0.00,,,0.00,WeatherCatV1.10B1784,2013-06-09 18:02:00,
2013-06-09 11:07:00,57.7,50.9,30.08,NW,325,4.0,10.0,78,0.00,,,0.00,WeatherCatV1.10B1784,2013-06-09 18:07:00,
2013-06-09 11:12:00,57.8,51.3,30.08,NNW,336,8.0,12.0,79,0.00,,,0.00,WeatherCatV1.10B1784,2013-06-09 18:12:00,
2013-06-09 11:17:00,57.7,51.2,30.08,NNW,332,8.0,9.0,79,0.00,,,0.00,WeatherCatV1.10B1784,2013-06-09 18:17:00,
2013-06-09 11:22:00,57.7,51.2,30.08,NW,316,12.0,12.0,79,0.00,,,0.00,WeatherCatV1.10B1784,2013-06-09 18:22:00,
2013-06-09 11:27:00,58.0,51.5,30.08,NNE,19,6.0,10.0,79,0.00,,,0.00,WeatherCatV1.10B1784,2013-06-09 18:27:00,
2013-06-09 11:32:00,58.2,51.7,30.08,NW,305,7.0,9.0,79,0.00,,,0.00,WeatherCatV1.10B1784,2013-06-09 18:32:00,
2013-06-09 11:37:00,58.4,52.3,30.08,NNW,347,4.0,7.0,80,0.00,,,0.00,WeatherCatV1.10B1784,2013-06-09 18:37:00,
2013-06-09 11:42:00,58.3,51.5,30.08,NW,312,6.0,9.0,78,0.00,,,0.00,WeatherCatV1.10B1784,2013-06-09 18:42:00,
2013-06-09 11:47:00,58.3,51.8,30.08,NW,311,7.0,11.0,79,0.00,,,0.00,WeatherCatV1.10B1784,2013-06-09 18:47:00,
2013-06-09 11:52:00,58.0,51.5,30.08,NNW,338,5.0,11.0,79,0.00,,,0.00,WeatherCatV1.10B1784,2013-06-09 18:52:00,
2013-06-09 11:57:00,58.4,52.3,30.08,North,355,7.0,10.0,80,0.00,,,0.00,WeatherCatV1.10B1784,2013-06-09 18:57:00,
2013-06-09 12:02:00,58.9,52.0,30.08,NNW,336,7.0,10.0,78,0.00,,,0.00,WeatherCatV1.10B1784,2013-06-09 19:02:00,
2013-06-09 12:07:00,58.9,51.0,30.08,WNW,288,6.0,9.0,75,0.00,,,0.00,WeatherCatV1.10B1784,2013-06-09 19:07:00,
2013-06-09 12:12:00,58.9,51.3,30.08,NW,319,7.0,8.0,76,0.00,,,0.00,WeatherCatV1.10B1784,2013-06-09 19:12:00,
2013-06-09 12:17:00,59.4,51.5,30.08,WNW,300,5.0,9.0,75,0.00,,,0.00,WeatherCatV1.10B1784,2013-06-09 19:17:00,
2013-06-09 12:22:00,59.6,51.7,30.08,NW,311,9.0,9.0,75,0.00,,,0.00,WeatherCatV1.10B1784,2013-06-09 19:22:00,
2013-06-09 12:27:00,59.0,50.7,30.08,North,358,4.0,8.0,74,0.00,,,0.00,WeatherCatV1.10B1784,2013-06-09 19:27:00,
2013-06-09 12:32:00,58.8,49.8,30.08,WNW,293,5.0,9.0,72,0.00,,,0.00,WeatherCatV1.10B1784,2013-06-09 19:32:00,
2013-06-09 12:37:00,59.4,51.1,30.08,NW,314,7.0,9.0,74,0.00,,,0.00,WeatherCatV1.10B1784,2013-06-09 19:37:00,
2013-06-09 12:42:00,59.7,50.3,30.07,NW,319,4.0,10.0,71,0.00,,,0.00,WeatherCatV1.10B1784,2013-06-09 19:42:00,
2013-06-09 12:47:00,59.4,50.7,30.08,NW,315,2.0,6.0,73,0.00,,,0.00,WeatherCatV1.10B1784,2013-06-09 19:47:00,
2013-06-09 12:52:00,59.2,50.2,30.08,NNE,22,3.0,5.0,72,0.00,,,0.00,WeatherCatV1.10B1784,2013-06-09 19:52:00,
2013-06-09 12:57:00,59.4,49.2,30.07,NW,323,2.0,6.0,69,0.00,,,0.00,WeatherCatV1.10B1784,2013-06-09 19:57:00,
2013-06-09 13:02:00,59.9,50.5,30.07,NNW,328,3.0,6.0,71,0.00,,,0.00,WeatherCatV1.10B1784,2013-06-09 20:02:00,
2013-06-09 13:07:00,60.1,50.3,30.07,NNW,331,3.0,7.0,70,0.00,,,0.00,WeatherCatV1.10B1784,2013-06-09 20:07:00,
2013-06-09 13:12:00,60.2,50.4,30.07,North,357,1.0,6.0,70,0.00,,,0.00,WeatherCatV1.10B1784,2013-06-09 20:12:00,
2013-06-09 13:17:00,60.6,50.8,30.07,NNW,328,3.0,4.0,70,0.00,,,0.00,WeatherCatV1.10B1784,2013-06-09 20:17:00,
2013-06-09 13:22:00,61.1,51.6,30.07,North,354,2.0,3.0,71,0.00,,,0.00,WeatherCatV1.10B1784,2013-06-09 20:22:00,
2013-06-09 13:27:00,61.9,51.6,30.07,NNE,26,3.0,3.0,69,0.00,,,0.00,WeatherCatV1.10B1784,2013-06-09 20:27:00,
2013-06-09 13:32:00,62.6,51.9,30.07,NW,311,2.0,4.0,68,0.00,,,0.00,WeatherCatV1.10B1784,2013-06-09 20:32:00,
2013-06-09 13:37:00,62.6,51.1,30.07,NNW,337,2.0,4.0,66,0.00,,,0.00,WeatherCatV1.10B1784,2013-06-09 20:37:00,
2013-06-09 13:42:00,62.8,52.5,30.07,NW,322,4.0,5.0,69,0.00,,,0.00,WeatherCatV1.10B1784,2013-06-09 20:42:00,
2013-06-09 13:47:00,62.4,51.7,30.07,NNW,336,3.0,5.0,68,0.00,,,0.00,WeatherCatV1.10B1784,2013-06-09 20:47:00,
2013-06-09 13:52:00,61.6,50.9,30.07,NNW,335,3.0,3.0,68,0.00,,,0.00,WeatherCatV1.10B1784,2013-06-09 20:52:00,
2013-06-09 13:57:00,61.1,50.5,30.07,NW,316,2.0,4.0,68,0.00,,,0.00,WeatherCatV1.10B1784,2013-06-09 20:57:00,
2013-06-09 14:02:00,60.9,50.7,30.07,NNE,30,1.0,2.0,69,0.00,,,0.00,WeatherCatV1.10B1784,2013-06-09 21:02:00,
2013-06-09 14:07:00,61.0,50.4,30.07,NNW,335,1.0,3.0,68,0.00,,,0.00,WeatherCatV1.10B1784,2013-06-09 21:07:00,
2013-06-09 14:12:00,60.7,50.5,30.07,NW,319,1.0,3.0,69,0.00,,,0.00,WeatherCatV1.10B1784,2013-06-09 21:12:00,
2013-06-09 14:17:00,60.7,50.5,30.06,North,357,2.0,3.0,69,0.00,,,0.00,WeatherCatV1.10B1784,2013-06-09 21:17:00,
2013-06-09 14:22:00,61.0,50.8,30.06,NW,323,2.0,3.0,69,0.00,,,0.00,WeatherCatV1.10B1784,2013-06-09 21:22:00,
2013-06-09 14:27:00,61.2,51.3,30.06,North,6,2.0,3.0,70,0.00,,,0.00,WeatherCatV1.10B1784,2013-06-09 21:27:00,
2013-06-09 14:32:00,61.4,51.5,30.06,NNW,328,2.0,2.0,70,0.00,,,0.00,WeatherCatV1.10B1784,2013-06-09 21:32:00,
2013-06-09 14:37:00,61.4,50.7,30.06,NW,315,1.0,3.0,68,0.00,,,0.00,WeatherCatV1.10B1784,2013-06-09 21:37:00,
2013-06-09 14:42:00,61.3,51.0,30.06,North,9,1.0,1.0,69,0.00,,,0.00,WeatherCatV1.10B1784,2013-06-09 21:42:00,
2013-06-09 14:47:00,61.4,51.1,30.06,NW,311,2.0,2.0,69,0.00,,,0.00,WeatherCatV1.10B1784,2013-06-09 21:47:00,
2013-06-09 14:52:00,61.2,49.7,30.06,NNE,13,1.0,1.0,66,0.00,,,0.00,WeatherCatV1.10B1784,2013-06-09 21:52:00,
2013-06-09 14:57:00,61.1,50.5,30.06,NNW,328,0.0,2.0,68,0.00,,,0.00,WeatherCatV1.10B1784,2013-06-09 21:57:00,
2013-06-09 15:02:00,60.9,50.7,30.06,NW,326,1.0,3.0,69,0.00,,,0.00,WeatherCatV1.10B1784,2013-06-09 22:02:00,
2013-06-09 15:07:00,60.8,50.2,30.06,NW,308,0.0,2.0,68,0.00,,,0.00,WeatherCatV1.10B1784,2013-06-09 22:07:00,
2013-06-09 15:12:00,60.4,49.8,30.06,NW,316,2.0,2.0,68,0.00,,,0.00,WeatherCatV1.10B1784,2013-06-09 22:12:00,
2013-06-09 15:17:00,60.0,49.0,30.06,NW,304,1.0,2.0,67,0.00,,,0.00,WeatherCatV1.10B1784,2013-06-09 22:17:00,
2013-06-09 15:22:00,60.1,49.5,30.06,NW,311,2.0,2.0,68,0.00,,,0.00,WeatherCatV1.10B1784,2013-06-09 22:22:00,
2013-06-09 15:27:00,60.2,50.4,30.06,NNE,25,1.0,2.0,70,0.00,,,0.00,WeatherCatV1.10B1784,2013-06-09 22:27:00,
2013-06-09 15:32:00,60.5,50.7,30.06,North,357,1.0,3.0,70,0.00,,,0.00,WeatherCatV1.10B1784,2013-06-09 22:32:00,
2013-06-09 15:37:00,60.8,49.8,30.06,NW,321,1.0,2.0,67,0.00,,,0.00,WeatherCatV1.10B1784,2013-06-09 22:37:00,
2013-06-09 15:42:00,60.9,49.5,30.06,North,8,1.0,2.0,66,0.00,,,0.00,WeatherCatV1.10B1784,2013-06-09 22:42:00,
2013-06-09 15:47:00,60.8,49.0,30.05,NW,325,2.0,2.0,65,0.00,,,0.00,WeatherCatV1.10B1784,2013-06-09 22:47:00,
2013-06-09 15:52:00,61.0,50.0,30.05,North,4,2.0,2.0,67,0.00,,,0.00,WeatherCatV1.10B1784,2013-06-09 22:52:00,
2013-06-09 15:57:00,61.1,49.7,30.05,NNW,343,1.0,2.0,66,0.00,,,0.00,WeatherCatV1.10B1784,2013-06-09 22:57:00,
2013-06-09 16:02:00,61.2,50.2,30.05,NNW,329,1.0,2.0,67,0.00,,,0.00,WeatherCatV1.10B1784,2013-06-09 23:02:00,
2013-06-09 16:07:00,61.2,50.2,30.05,NNW,328,0.0,1.0,67,0.00,,,0.00,WeatherCatV1.10B1784,2013-06-09 23:07:00,
2013-06-09 16:12:00,61.5,50.4,30.05,NW,309,1.0,1.0,67,0.00,,,0.00,WeatherCatV1.10B1784,2013-06-09 23:12:00,
2013-06-09 16:17:00,61.8,51.1,30.06,WNW,288,1.0,1.0,68,0.00,,,0.00,WeatherCatV1.10B1784,2013-06-09 23:17:00,
2013-06-09 16:22:00,61.8,50.7,30.05,NW,307,1.0,1.0,67,0.00,,,0.00,WeatherCatV1.10B1784,2013-06-09 23:22:00,
2013-06-09 16:27:00,61.7,50.6,30.05,NW,307,0.0,1.0,67,0.00,,,0.00,WeatherCatV1.10B1784,2013-06-09 23:27:00,
2013-06-09 16:32:00,61.9,50.8,30.05,NW,309,0.0,0.0,67,0.00,,,0.00,WeatherCatV1.10B1784,2013-06-09 23:32:00,
2013-06-09 16:37:00,61.9,50.4,30.05,NNW,347,0.0,1.0,66,0.00,,,0.00,WeatherCatV1.10B1784,2013-06-09 23:37:00,
2013-06-09 16:42:00,61.8,50.7,30.05,NNW,336,1.0,2.0,67,0.00,,,0.00,WeatherCatV1.10B1784,2013-06-09 23:42:00,
2013-06-09 16:47:00,61.8,50.7,30.05,North,8,2.0,2.0,67,0.00,,,0.00,WeatherCatV1.10B1784,2013-06-09 23:47:00,
2013-06-09 16:52:00,61.7,50.6,30.05,NNE,18,1.0,2.0,67,0.00,,,0.00,WeatherCatV1.10B1784,2013-06-09 23:52:00,
2013-06-09 16:57:00,61.6,50.9,30.05,North,9,1.0,2.0,68,0.00,,,0.00,WeatherCatV1.10B1784,2013-06-09 23:57:00,
2013-06-09 17:02:00,61.5,51.2,30.05,NNW,347,1.0,2.0,69,0.00,,,0.00,WeatherCatV1.10B1784,2013-06-10 00:02:00,
2013-06-09 17:07:00,61.8,51.5,30.05,NNW,346,1.0,2.0,69,0.00,,,0.00,WeatherCatV1.10B1784,2013-06-10 00:07:00,
2013-06-09 17:12:00,61.7,50.6,30.05,NW,319,1.0,2.0,67,0.00,,,0.00,WeatherCatV1.10B1784,2013-06-10 00:12:00,
2013-06-09 17:17:00,61.5,50.0,30.05,NW,315,1.0,2.0,66,0.00,,,0.00,WeatherCatV1.10B1784,2013-06-10 00:17:00,
2013-06-09 17:22:00,61.5,49.2,30.05,NW,304,1.0,2.0,64,0.00,,,0.00,WeatherCatV1.10B1784,2013-06-10 00:22:00,
2013-06-09 17:27:00,61.6,50.5,30.05,NW,305,0.0,1.0,67,0.00,,,0.00,WeatherCatV1.10B1784,2013-06-10 00:27:00,
2013-06-09 17:32:00,61.9,50.4,30.05,NW,304,0.0,0.0,66,0.00,,,0.00,WeatherCatV1.10B1784,2013-06-10 00:32:00,
2013-06-09 17:37:00,63.0,51.5,30.04,North,350,2.0,2.0,66,0.00,,,0.00,WeatherCatV1.10B1784,2013-06-10 00:37:00,
2013-06-09 17:42:00,63.7,50.9,30.04,North,352,1.0,2.0,63,0.00,,,0.00,WeatherCatV1.10B1784,2013-06-10 00:42:00,
2013-06-09 17:47:00,64.5,52.0,30.04,NNW,345,1.0,2.0,64,0.00,,,0.00,WeatherCatV1.10B1784,2013-06-10 00:47:00,
2013-06-09 17:52:00,64.1,51.2,30.04,NNW,328,0.0,2.0,63,0.00,,,0.00,WeatherCatV1.10B1784,2013-06-10 00:52:00,
2013-06-09 17:57:00,63.8,51.4,30.04,NNW,335,1.0,2.0,64,0.00,,,0.00,WeatherCatV1.10B1784,2013-06-10 00:57:00,
2013-06-09 18:02:00,63.9,51.5,30.04,NNW,332,1.0,2.0,64,0.00,,,0.00,WeatherCatV1.10B1784,2013-06-10 01:02:00,
2013-06-09 18:07:00,63.8,51.0,30.04,North,349,1.0,2.0,63,0.00,,,0.00,WeatherCatV1.10B1784,2013-06-10 01:07:00,
2013-06-09 18:12:00,64.0,51.6,30.04,NW,325,1.0,2.0,64,0.00,,,0.00,WeatherCatV1.10B1784,2013-06-10 01:12:00,
2013-06-09 18:17:00,64.1,51.7,30.03,North,9,1.0,2.0,64,0.00,,,0.00,WeatherCatV1.10B1784,2013-06-10 01:17:00,
2013-06-09 18:22:00,63.9,50.6,30.03,NNW,342,1.0,3.0,62,0.00,,,0.00,WeatherCatV1.10B1784,2013-06-10 01:22:00,
2013-06-09 18:27:00,64.0,50.3,30.03,NW,321,2.0,2.0,61,0.00,,,0.00,WeatherCatV1.10B1784,2013-06-10 01:27:00,
2013-06-09 18:32:00,64.0,49.8,30.03,North,8,2.0,3.0,60,0.00,,,0.00,WeatherCatV1.10B1784,2013-06-10 01:32:00,
2013-06-09 18:37:00,63.4,49.7,30.03,North,351,2.0,2.0,61,0.00,,,0.00,WeatherCatV1.10B1784,2013-06-10 01:37:00,
2013-06-09 18:42:00,63.0,49.8,30.03,NW,319,1.0,1.0,62,0.00,,,0.00,WeatherCatV1.10B1784,2013-06-10 01:42:00,
2013-06-09 18:47:00,62.3,48.2,30.02,NW,313,1.0,2.0,60,0.00,,,0.00,WeatherCatV1.10B1784,2013-06-10 01:47:00,
2013-06-09 18:52:00,62.0,48.8,30.02,NW,315,0.0,1.0,62,0.00,,,0.00,WeatherCatV1.10B1784,2013-06-10 01:52:00,
2013-06-09 18:57:00,61.9,48.7,30.02,NW,315,0.0,1.0,62,0.00,,,0.00,WeatherCatV1.10B1784,2013-06-10 01:57:00,
2013-06-09 19:02:00,62.0,49.7,30.03,NNE,15,1.0,1.0,64,0.00,,,0.00,WeatherCatV1.10B1784,2013-06-10 02:02:00,
2013-06-09 19:07:00,61.8,49.5,30.02,North,353,2.0,3.0,64,0.00,,,0.00,WeatherCatV1.10B1784,2013-06-10 02:07:00,
2013-06-09 19:12:00,61.7,49.4,30.02,NNW,342,2.0,4.0,64,0.00,,,0.00,WeatherCatV1.10B1784,2013-06-10 02:12:00,
2013-06-09 19:17:00,61.6,49.3,30.02,North,358,1.0,3.0,64,0.00,,,0.00,WeatherCatV1.10B1784,2013-06-10 02:17:00,
2013-06-09 19:22:00,62.2,50.7,30.02,NNW,343,1.0,2.0,66,0.00,,,0.00,WeatherCatV1.10B1784,2013-06-10 02:22:00,
2013-06-09 19:27:00,63.2,50.8,30.03,NW,309,0.0,0.0,64,0.00,,,0.00,WeatherCatV1.10B1784,2013-06-10 02:27:00,
2013-06-09 19:32:00,64.0,49.4,30.02,WSW,257,0.0,2.0,59,0.00,,,0.00,WeatherCatV1.10B1784,2013-06-10 02:32:00,
2013-06-09 19:37:00,64.2,48.2,30.02,NW,311,2.0,2.0,56,0.00,,,0.00,WeatherCatV1.10B1784,2013-06-10 02:37:00,
2013-06-09 19:42:00,64.2,48.6,30.02,NW,319,1.0,2.0,57,0.00,,,0.00,WeatherCatV1.10B1784,2013-06-10 02:42:00,
2013-06-09 19:47:00,64.1,49.5,30.02,NW,307,1.0,2.0,59,0.00,,,0.00,WeatherCatV1.10B1784,2013-06-10 02:47:00,
2013-06-09 19:52:00,63.5,50.2,30.02,NW,313,2.0,2.0,62,0.00,,,0.00,WeatherCatV1.10B1784,2013-06-10 02:52:00,
2013-06-09 19:57:00,62.6,50.2,30.02,NW,308,0.0,1.0,64,0.00,,,0.00,WeatherCatV1.10B1784,2013-06-10 02:57:00,
2013-06-09 20:02:00,62.0,49.7,30.03,NW,311,0.0,1.0,64,0.00,,,0.00,WeatherCatV1.10B1784,2013-06-10 03:02:00,
2013-06-09 20:07:00,61.8,49.9,30.02,NW,311,0.0,2.0,65,0.00,,,0.00,WeatherCatV1.10B1784,2013-06-10 03:07:00,
2013-06-09 20:12:00,61.5,50.4,30.02,West,280,0.0,2.0,67,0.00,,,0.00,WeatherCatV1.10B1784,2013-06-10 03:12:00,
2013-06-09 20:17:00,61.4,49.9,30.02,NW,319,1.0,4.0,66,0.00,,,0.00,WeatherCatV1.10B1784,2013-06-10 03:17:00,
2013-06-09 20:22:00,61.5,50.8,30.02,North,11,1.0,1.0,68,0.00,,,0.00,WeatherCatV1.10B1784,2013-06-10 03:22:00,
2013-06-09 20:27:00,61.4,51.1,30.02,NW,311,0.0,2.0,69,0.00,,,0.00,WeatherCatV1.10B1784,2013-06-10 03:27:00,
2013-06-09 20:32:00,61.3,49.8,30.02,NW,326,2.0,2.0,66,0.00,,,0.00,WeatherCatV1.10B1784,2013-06-10 03:32:00,
2013-06-09 20:37:00,61.2,49.3,30.02,West,271,0.0,1.0,65,0.00,,,0.00,WeatherCatV1.10B1784,2013-06-10 03:37:00,
2013-06-09 20:42:00,61.0,49.1,30.02,West,280,0.0,1.0,65,0.00,,,0.00,WeatherCatV1.10B1784,2013-06-10 03:42:00,
2013-06-09 20:47:00,60.8,48.5,30.02,West,260,1.0,2.0,64,0.00,,,0.00,WeatherCatV1.10B1784,2013-06-10 03:47:00,
2013-06-09 20:52:00,60.7,48.4,30.02,WNW,294,0.0,1.0,64,0.00,,,0.00,WeatherCatV1.10B1784,2013-06-10 03:52:00,
2013-06-09 20:57:00,60.6,47.9,30.02,West,276,1.0,4.0,63,0.00,,,0.00,WeatherCatV1.10B1784,2013-06-10 03:57:00,
2013-06-09 21:01:00,60.5,48.3,30.02,NW,319,2.0,2.0,64,0.00,,,0.00,WeatherCatV1.10B1784,2013-06-10 04:01:00,
2013-06-09 21:06:00,60.3,48.5,30.02,WNW,301,1.0,3.0,65,0.00,,,0.00,WeatherCatV1.10B1784,2013-06-10 04:06:00,
2013-06-09 21:11:00,60.0,49.8,30.03,NW,307,2.0,5.0,69,0.00,,,0.00,WeatherCatV1.10B1784,2013-06-10 04:11:00,
2013-06-09 21:16:00,59.8,48.4,30.03,West,280,1.0,3.0,66,0.00,,,0.00,WeatherCatV1.10B1784,2013-06-10 04:16:00,
2013-06-09 21:21:00,59.7,47.9,30.03,West,264,3.0,3.0,65,0.00,,,0.00,WeatherCatV1.10B1784,2013-06-10 04:21:00,
2013-06-09 21:26:00,59.4,47.2,30.03,WSW,250,1.0,4.0,64,0.00,,,0.00,WeatherCatV1.10B1784,2013-06-10 04:26:00,
2013-06-09 21:31:00,59.3,47.1,30.03,WNW,291,1.0,6.0,64,0.00,,,0.00,WeatherCatV1.10B1784,2013-06-10 04:31:00,
2013-06-09 21:36:00,59.3,47.1,30.03,West,266,2.0,4.0,64,0.00,,,0.00,WeatherCatV1.10B1784,2013-06-10 04:36:00,
2013-06-09 21:41:00,59.1,47.3,30.03,West,262,1.0,5.0,65,0.00,,,0.00,WeatherCatV1.10B1784,2013-06-10 04:41:00,
2013-06-09 21:46:00,59.0,47.7,30.03,West,272,3.0,5.0,66,0.00,,,0.00,WeatherCatV1.10B1784,2013-06-10 04:46:00,
2013-06-09 21:51:00,59.0,48.1,30.03,WNW,284,2.0,3.0,67,0.00,,,0.00,WeatherCatV1.10B1784,2013-06-10 04:51:00,
2013-06-09 21:56:00,58.8,48.3,30.03,WNW,282,1.0,3.0,68,0.00,,,0.00,WeatherCatV1.10B1784,2013-06-10 04:56:00,
2013-06-09 22:01:00,58.7,48.6,30.03,West,273,3.0,3.0,69,0.00,,,0.00,WeatherCatV1.10B1784,2013-06-10 05:01:00,
2013-06-09 22:06:00,58.4,47.9,30.03,WSW,250,3.0,4.0,68,0.00,,,0.00,WeatherCatV1.10B1784,2013-06-10 05:06:00,
2013-06-09 22:11:00,58.2,48.1,30.04,WSW,246,2.0,4.0,69,0.00,,,0.00,WeatherCatV1.10B1784,2013-06-10 05:11:00,
2013-06-09 22:16:00,58.0,48.3,30.04,WSW,257,2.0,3.0,70,0.00,,,0.00,WeatherCatV1.10B1784,2013-06-10 05:16:00,
2013-06-09 22:21:00,57.9,48.6,30.04,West,266,5.0,5.0,71,0.00,,,0.00,WeatherCatV1.10B1784,2013-06-10 05:21:00,
2013-06-09 22:26:00,57.9,48.6,30.04,SW,226,2.0,4.0,71,0.00,,,0.00,WeatherCatV1.10B1784,2013-06-10 05:26:00,
2013-06-09 22:31:00,57.9,48.9,30.04,SW,236,3.0,6.0,72,0.00,,,0.00,WeatherCatV1.10B1784,2013-06-10 05:31:00,
2013-06-09 22:36:00,57.9,49.3,30.04,WNW,290,3.0,5.0,73,0.00,,,0.00,WeatherCatV1.10B1784,2013-06-10 05:36:00,
2013-06-09 22:41:00,57.9,48.9,30.04,SW,233,2.0,4.0,72,0.00,,,0.00,WeatherCatV1.10B1784,2013-06-10 05:41:00,
2013-06-09 22:46:00,57.9,48.6,30.04,West,281,1.0,6.0,71,0.00,,,0.00,WeatherCatV1.10B1784,2013-06-10 05:46:00,
2013-06-09 22:51:00,57.9,48.6,30.04,WNW,283,0.0,4.0,71,0.00,,,0.00,WeatherCatV1.10B1784,2013-06-10 05:51:00,
2013-06-09 22:56:00,57.8,48.5,30.04,West,278,2.0,4.0,71,0.00,,,0.00,WeatherCatV1.10B1784,2013-06-10 05:56:00,
2013-06-09 23:01:00,57.8,47.7,30.04,WSW,250,7.0,7.0,69,0.00,,,0.00,WeatherCatV1.10B1784,2013-06-10 06:01:00,
2013-06-09 23:06:00,57.8,47.3,30.04,WNW,284,2.0,4.0,68,0.00,,,0.00,WeatherCatV1.10B1784,2013-06-10 06:06:00,
2013-06-09 23:11:00,57.6,47.9,30.04,WNW,282,0.0,1.0,70,0.00,,,0.00,WeatherCatV1.10B1784,2013-06-10 06:11:00,
2013-06-09 23:16:00,57.3,47.6,30.04,West,276,1.0,2.0,70,0.00,,,0.00,WeatherCatV1.10B1784,2013-06-10 06:16:00,
2013-06-09 23:21:00,57.1,47.8,30.04,West,274,1.0,1.0,71,0.00,,,0.00,WeatherCatV1.10B1784,2013-06-10 06:21:00,
2013-06-09 23:26:00,56.9,47.6,30.04,West,260,0.0,1.0,71,0.00,,,0.00,WeatherCatV1.10B1784,2013-06-10 06:26:00,
2013-06-09 23:31:00,56.7,46.6,30.04,West,271,0.0,2.0,69,0.00,,,0.00,WeatherCatV1.10B1784,2013-06-10 06:31:00,
2013-06-09 23:36:00,56.7,45.9,30.04,West,266,2.0,2.0,67,0.00,,,0.00,WeatherCatV1.10B1784,2013-06-10 06:36:00,
2013-06-09 23:41:00,57.0,45.3,30.03,WNW,288,6.0,6.0,65,0.00,,,0.00,WeatherCatV1.10B1784,2013-06-10 06:41:00,
2013-06-09 23:46:00,57.4,45.3,30.03,West,276,6.0,6.0,64,0.00,,,0.00,WeatherCatV1.10B1784,2013-06-10 06:46:00,
2013-06-09 23:51:00,57.8,45.3,30.03,WNW,282,6.0,9.0,63,0.00,,,0.00,WeatherCatV1.10B1784,2013-06-10 06:51:00,
2013-06-09 23:56:00,58.1,45.6,30.03,West,269,7.0,10.0,63,0.00,,,0.00,WeatherCatV1.10B1784,2013-06-10 06:56:00,